Weather History for KMTH - July, 2013

Change the Weather History Date:

Thursday, July 11, 2013

  Actual Average Record
Temperature  
Mean Temperature 87 °F 85 °F  
Max Temperature 93 °F 91 °F - ()
Min Temperature 80 °F 79 °F - ()
Degree Days  
Heating Degree Days 0 0  
Month to date heating degree days 0 0  
Since 1 June heating degree days 0 0  
Since 1 July heating degree days 0 0  
Cooling Degree Days 22 20  
Month to date cooling degree days 222 220  
Year to date cooling degree days 2668 2357  
Since 1 June cooling degree days 838 814  
Growing Degree Days 36 (Base 50)    
Moisture  
Dew Point 72 °F    
Average Humidity 63    
Maximum Humidity 74    
Minimum Humidity 52    
Precipitation  
Precipitation 0.00 in 0.12 in - ()
Month to date precipitation 1.94 1.46  
Year to date precipitation 30.95 19.01  
Snow  
Snow 0.00 in - - ()
Month to date snowfall 0.0  
Since 1 June snowfall 0.0  
Since 1 July snowfall 0.0  
Snow Depth 0.00 in    
Sea Level Pressure  
Sea Level Pressure 29.99 in    
Wind  
Wind Speed 4 mph (SE)    
Max Wind Speed 12 mph    
Max Gust Speed 18 mph    
Visibility 10 miles    
Events      
T = Trace of Precipitation, MM = Missing Value Source: NWS Daily Summary

Daily Weather History Graph

Daily Weather History Graph

Search for Another Location

Airport or City:

Trip Planner

Search our weather history database for the weather conditions in past years. The results will help you decide how hot, cold, wet, or windy it might be!

Date:

Astronomy

Jul. 11, 2013 Rise Set
Actual Time 6:42 AM EDT 8:16 PM EDT
Civil Twilight 6:17 AM EDT 8:42 PM EDT
Nautical Twilight 5:46 AM EDT 9:12 PM EDT
Astronomical Twilight 5:15 AM EDT 9:43 PM EDT
Moon 9:35 AM EDT (7/11) 10:24 PM EDT (7/11)
Length of Visible Light 14h 24m
Length of Day
13h 33m
Waxing Crescent, 10% of the Moon is Illuminated
Jul 11
Waxing Crescent
Jul 15
First Quarter
Jul 22
Full
Jul 29
Last Quarter
Aug 6
New

Hourly Weather History & Observations

Time (EDT) Temp. Heat Index Dew Point Humidity Pressure Visibility Wind Dir Wind Speed Gust Speed Precip Events Conditions
12:53 AM 84.9 °F 90.1 °F 71.1 °F 63% 30.04 in 10.0 mi SE 3.5 mph - N/A   Clear
1:53 AM 84.0 °F 89.0 °F 71.1 °F 65% 30.02 in 10.0 mi Variable 4.6 mph - N/A   Partly Cloudy
2:53 AM 82.9 °F 88.0 °F 72.0 °F 69% 30.01 in 10.0 mi SE 3.5 mph - N/A   Clear
3:53 AM 82.0 °F 86.7 °F 72.0 °F 71% 30.00 in 10.0 mi Calm Calm - N/A   Clear
4:53 AM 81.0 °F 84.9 °F 71.1 °F 72% 29.99 in 10.0 mi Calm Calm - N/A   Clear
5:53 AM 82.9 °F 88.0 °F 72.0 °F 69% 30.00 in 10.0 mi Variable 3.5 mph - N/A   Clear
6:53 AM 82.9 °F 88.0 °F 72.0 °F 69% 30.00 in 10.0 mi SE 3.5 mph - N/A   Partly Cloudy
7:53 AM 84.9 °F 91.4 °F 73.0 °F 67% 30.00 in 10.0 mi Variable 4.6 mph - N/A   Partly Cloudy
8:53 AM 88.0 °F 95.6 °F 73.0 °F 61% 30.00 in 10.0 mi SE 5.8 mph - N/A   Clear
9:53 AM 88.0 °F 96.5 °F 73.9 °F 63% 30.01 in 10.0 mi SE 5.8 mph - N/A   Partly Cloudy
10:53 AM 90.0 °F 99.0 °F 73.9 °F 59% 30.01 in 10.0 mi SSE 4.6 mph - N/A   Partly Cloudy
11:53 AM 91.9 °F 101.3 °F 73.9 °F 55% 30.01 in 10.0 mi ESE 5.8 mph - N/A   Clear
12:53 PM 91.0 °F 98.2 °F 72.0 °F 53% 30.01 in 8.0 mi Variable 3.5 mph - N/A   Clear
1:53 PM 91.9 °F 98.4 °F 71.1 °F 50% 30.00 in 10.0 mi South 4.6 mph - N/A   Clear
2:53 PM 91.0 °F 98.2 °F 72.0 °F 53% 29.99 in 10.0 mi South 5.8 mph - N/A   Clear
3:53 PM 91.0 °F 99.3 °F 73.0 °F 55% 29.97 in 10.0 mi SSE 5.8 mph - N/A   Clear
4:53 PM 90.0 °F 97.9 °F 73.0 °F 57% 29.94 in 10.0 mi Variable 3.5 mph - N/A   Clear
5:53 PM 88.0 °F 94.7 °F 72.0 °F 59% 29.95 in 10.0 mi Variable 4.6 mph - N/A   Mostly Cloudy
6:27 PM 87.8 °F 95.6 °F 73.4 °F 62% 29.97 in 10.0 mi SE 5.8 mph - N/A   Scattered Clouds
6:53 PM 88.0 °F 95.6 °F 73.0 °F 61% 29.98 in 10.0 mi ESE 5.8 mph - N/A   Clear
7:53 PM 86.0 °F 92.2 °F 72.0 °F 63% 29.97 in 10.0 mi ESE 3.5 mph - N/A   Clear
8:53 PM 84.9 °F 91.4 °F 73.0 °F 67% 29.96 in 10.0 mi East 4.6 mph - N/A   Clear
9:53 PM 84.9 °F 89.4 °F 70.0 °F 61% 29.98 in 10.0 mi Calm Calm - N/A   Clear
10:53 PM 84.9 °F 92.1 °F 73.9 °F 69% 29.99 in 10.0 mi SE 5.8 mph - N/A   Clear
11:53 PM 84.9 °F 91.4 °F 73.0 °F 67% 29.99 in 10.0 mi SSE 6.9 mph - N/A   Partly Cloudy